Погода в Гурдаспуре

Индия     32°02′17″N   75°24′19″E
темп.,
°C
ветер,
м/с
пор.,
м/с
влажн.,
%
обл.,
%
осадки,
мм/ч
давл.,
гПа
погр.,
м
20 января, чт
чт2023:30+11св2391100 0.7 101543
02:30+11ссв1188100 0.0 101314
05:30+11ссв228778 0.0 101222
08:30+12ссз128696 0.0 101355
11:30+14сз1180100 0.0 1014199
14:30+16зсз116740 0.0 1011646
17:30+14ю00785 0.3 101011
20:30+12юв11855 0.0 101210
21 января, пт
пт2123:30+10всв00895 0.0 101310
02:30+10ссв009012 0.1 101310
05:30+9ссв11926 0.1 101210
08:30+11с008925 0.0 101430
11:30+16ююз01716 0.0 1015565
14:30+18ююв22593 0.0 10121044
17:30+15юз12740 0.0 101111
20:30+12всв11820 0.1 101210
22 января, сб
сб2223:30+11в1185100 0.1 101211
02:30+11юв2282100 0.1 101026
05:30+11вюв0185100 0.3 100911
08:30+11св1287100 0.4 101071
11:30+13св4684100 2.1 1010308
14:30+13юв51084100 2.1 1008746
17:30+11в41091100 3.8 1008399
20:30+11всв51194100 3.3 1010580
23 января, вс
вс2323:30+11в4895100 6.1 1010373
02:30+10св3695100 4.4 1009227
05:30+11вюв51295100 14.5 1009632
08:30+11юв61495100 10.4 1010747
11:30+12юв51296100 20.3 1013738
14:30+11всв4896100 5.3 1012448
17:30+11св3696100 8.9 1012167
20:30+11всв239595 3.7 1014130
24 января, пн
пн2423:30+11всв359591 6.3 1014133
02:30+10всв3695100 0.2 1014170
05:30+10св4794100 0.8 1014176
08:30+10св3790100 0.0 1015190
11:30+14св237590 0.0 1016405
14:30+17ссз22656 0.8 1013603
17:30+14ссз227831 1.6 101319
20:30+10ссз22876 0.1 101511